Other Public Products
Issued by NWS Charleston, SC

Current Version | Previous Version | Graphics & Text | Print | Product List | Glossary On
Versions: 1 2 3 4 5 6 7 8 9 10 11 12 13 14 15 16 17 18 19 20 21 22 23 24 25 26 27 28 29 30 31 32 33 34 35 36 37 38 39 40 41 42 43 44 45 46 47 48 49 50
000
FPUS82 KCHS 171027
OPUCHS

TEST...KCHS/KSAV Gateway Observations...TEST
National Weather Service Charleston SC
500 AM EST FRI NOV 17 2017

NOTE: "fair" indicates few or no clouds below 12,000 feet with no
significant weather and/or obstructions to visibility.

SCZ050-WAZ558-NCZ071-TXZ119-213-PAZ071-DCZ001-FLZ074-172-MI076-
NYZ176-178-MAZ016-IL014-TNZ027-NJZ106-GAZ044-MD014-171100-

...Gateway Observations for Charleston International...

CITY           SKY/WX    TMP DP  RH WIND       PRES   REMARKS
Chas Airport   CLEAR     46  43  89 NE8       30.12S
Seattle        CLOUDY    43  38  82 S7        29.81R
Charlotte      CLEAR     43  30  60 N6        30.16R
Dallas DFW     MOCLDY    71  67  87 S12       29.92F
Dallas Love    CLOUDY    71  66  84 S9G18     29.94F
Philladelphia  MOCLDY    45  27  49 NW13      30.08R
Wash National  PTCLDY    44  29  55 W9        30.17R
Baltimore      PTCLDY    37  30  75 W8        30.13R WCI  31
Miami          PTCLDY    69  67  93 N7        29.97S
Detroit        CLOUDY    34  27  75 CALM      30.26S
Newark         MOCLDY    42  27  55 NW18      30.01R
Laguardia      PTCLDY    43  28  55 NW23G32   29.98R
J F K          PTCLDY    42  26  53 NW22G29   29.99R
Boston Logan   CLOUDY    40  31  70 NW17G28   29.76R WCI  31
Ft. Lauderdale PTCLDY    67  67 100 N7        29.97S
Chicago O`Hare CLOUDY    37  30  75 S16       30.16F WCI  28
Chicago Midway CLOUDY    37  31  78 S13       30.17F WCI  29
Houston Bush   PTCLDY    69  68  96 CALM      30.02S
Houston Hobby  MOCLDY    67  67 100 CALM      30.01S
Nashville      PTCLDY    35  32  88 NE3       30.19R FOG
Atlanta        CLEAR     42  37  82 NW6       30.13R

$$

GAZ044-118-TXZ119-213-NCZ071-DCZ001-MDZ014-506-PAZ021-071-NJZ106-
NYZ176-178-MAZ106-OHZ011-021-055-MIZ076-KYZ091-ILZ014-INZ047-
MNZ060-ONZ431-171100-

...Gateway Observations for Savannah International...

CITY           SKY/WX    TMP DP  RH WIND       PRES   REMARKS
Savannah Arpt  CLEAR     42  41  96 CALM      30.12R
Atlanta        CLEAR     42  37  82 NW6       30.13R
Charlotte      CLEAR     43  30  60 N6        30.16R
Dallas DFW     MOCLDY    71  67  87 S12       29.92F
Houston Bush   PTCLDY    69  68  96 CALM      30.02S
Wash National  PTCLDY    44  29  55 W9        30.17R
Wash Dulles    PTCLDY    40  29  64 W6        30.17R WCI  36
Baltimore      PTCLDY    37  30  75 W8        30.13R WCI  31
Philadelphia   MOCLDY    45  27  49 NW13      30.08R
Newark         MOCLDY    42  27  55 NW18      30.01R
Laguardia      PTCLDY    43  28  55 NW23G32   29.98R
J F K          PTCLDY    42  26  53 NW22G29   29.99R
Boston         CLOUDY    40  31  70 NW17G28   29.76R WCI  31
Pittsburg      CLOUDY    37  27  67 NW9       30.21R WCI  30
Akron          CLOUDY    37  27  67 NE3       30.22R
Cleveland      CLOUDY    38  29  70 N5        30.27R WCI  34
Cincinnati     CLOUDY    36  31  82 SE10      30.24S WCI  28
Columbus       CLOUDY    37  30  77 SE5       30.26R WCI  33
Detroit        CLOUDY    34  27  75 CALM      30.26S
Chicago O`Hare CLOUDY    37  30  75 S16       30.16F WCI  28
Minneapolis    CLOUDY    36  29  75 S21G28    29.80F WCI  25
Indianapolis   CLOUDY    35  29  78 SE9       30.21S WCI  28
Toronto Canada CLOUDY    30  19  64 NW13      30.22R WCI  20

$$




USA.gov is the U.S. government's official web portal to all federal, state and local government web resources and services.